STARLINK-34954 (65275 NORAD) Tracking and Keplerian Element Data

This shows tracking and keplerian element data for the satellite.

Feedback or suggestion? Click here.




ElementValue
Catalog65275
NameSTARLINK-34954
Epoch Orbit1932
Epoch Day354.12513571
Epoch Year2025
RAAN44.1506
Inclination97.6049
Eccentricity0.0001726
Argument of Perigee93.2631
Mean Anonmoly266.8794
Mean Motion15.05648636
Decay Rate8.37E-06
L11 65275U 25184C 25354.12513571 .00000837 00000+0 62187-4 0 9994
L22 65275 97.6049 44.1506 0001726 93.2631 266.8794 15.05648636 19323



Live tracking and technical data element details for STARLINK-34954 (NORAD 65275). STARLINK-34954 can be tracked NOW for your location showing map with azimuth and elevation plus other details from your city location.







IsCatalogInMostPopularTable: catalog: 65275, numindb: 8
Update: records affected: 1



GetName: 65275 STARLINK-34954

Hit Count: updated at: Tue, 21 Apr 2026 19:08:12 GMT